Thorne Bay FAA Web Cam AK US FAA-ALASKA current weather conditions

sailwx.info

Wind from 061 at 1 knots

Air temperature 3.5° C
Dewpoint 2.6° C

Last reported at 2020-Jan-22 13:50 UTC.
Time now 2020-Jan-22 14:50 UTC

Location: N 55°41' W 132°32'.
View on Google Maps.

See reports from other nearby stations

  
Tides and Currents Weather Stations Pressure Air Temp Water Temp Dewpoint Dewpoint Depression Visibility Wind Speed Wind Dir Waves Ship Positions
date/time (UTC)wind fromknots sea level pressurealtimeterstation pressurevisibilityair tempwater tempwave heightnotes
2020-Jan-22 13:50 061 1 3.5
2020-Jan-22 13:40 062 1 2.7
2020-Jan-22 13:30 107 1 3.1
2020-Jan-22 13:20 304 0 3.5
2020-Jan-22 13:10 102 1 3.5
2020-Jan-22 13:00 097 0 3.7
2020-Jan-22 12:50 290 1 3.9
2020-Jan-22 12:40 354 2 4.0
2020-Jan-22 12:30 065 2 3.4
2020-Jan-22 12:20 295 2 3.2
2020-Jan-22 12:10 357 2 4.8
2020-Jan-22 12:00 074 2 3.8
2020-Jan-22 11:50 106 0 3.2
2020-Jan-22 11:40 207 5 4.6
2020-Jan-22 11:30 018 3 3.0
2020-Jan-22 11:20 291 1 3.4
2020-Jan-22 11:10 029 0 3.7
2020-Jan-22 11:00 160 0 3.3
2020-Jan-22 10:50 030 1 2.7
2020-Jan-22 10:40 287 1 2.9
2020-Jan-22 10:30 040 1 2.9
2020-Jan-22 10:20 302 0 2.9
2020-Jan-22 10:10 071 1 2.9
2020-Jan-22 10:00 003 0 3.0
2020-Jan-22 09:50 119 0 3.4
2020-Jan-22 09:40 031 0 2.4
2020-Jan-22 09:30 312 2 2.6
2020-Jan-22 09:20 337 0 3.4
2020-Jan-22 09:10 012 1 3.8
2020-Jan-22 09:00 354 1 2.4
2020-Jan-22 08:50 012 2 2.2
2020-Jan-22 08:40 157 2 2.1
2020-Jan-22 08:30 170 1 2.2
2020-Jan-22 08:20 2.1
2020-Jan-22 08:10 094 1 2.0
2020-Jan-22 08:00 177 0 2.2
2020-Jan-22 07:50 055 0 2.6
2020-Jan-22 07:40 335 1 2.4
2020-Jan-22 07:30 085 0 2.0
2020-Jan-22 07:20 286 0 2.0
2020-Jan-22 07:10 158 0 2.0
2020-Jan-22 07:00 343 0 2.0
2020-Jan-22 06:50 327 0 2.0
2020-Jan-22 06:40 135 1 2.2
2020-Jan-22 06:30 088 1 2.2
2020-Jan-22 06:20 212 2 2.5
2020-Jan-22 06:10 073 0 2.6
2020-Jan-22 06:00 101 0 2.8
2020-Jan-22 05:50 078 0 2.6
2020-Jan-22 05:40 001 0 2.6
2020-Jan-22 05:30 076 0 3.0
2020-Jan-22 05:20 311 1 2.8
2020-Jan-22 05:10 338 1 2.5
2020-Jan-22 05:00 134 1 2.3
2020-Jan-22 04:50 348 2 2.5
2020-Jan-22 04:40 302 1 2.4
2020-Jan-22 04:30 069 1 1.9
2020-Jan-22 04:20 290 0 2.1
2020-Jan-22 04:10 319 0 2.1
2020-Jan-22 04:00 162 3 2.4
2020-Jan-22 03:50 348 1 2.2
2020-Jan-22 03:40 297 1 2.7
2020-Jan-22 03:30 094 0 2.4
2020-Jan-22 03:20 302 0 2.1
2020-Jan-22 03:10 336 0 2.2
2020-Jan-22 03:00 122 0 2.6
2020-Jan-22 02:50 147 0 2.3
2020-Jan-22 02:40 301 2 2.3
2020-Jan-22 02:30 099 0 2.6
2020-Jan-22 02:20 160 0 3.0
2020-Jan-22 02:10 101 1 2.9
2020-Jan-22 02:00 075 1 2.5
2020-Jan-22 01:50 132 2 2.4
2020-Jan-22 01:40 116 0 2.9
2020-Jan-22 01:30 081 1 2.9
2020-Jan-22 01:20 295 1 3.0
2020-Jan-22 01:10 149 0 3.3
2020-Jan-22 01:00 102 1 3.1
2020-Jan-22 00:50 112 2 3.2
2020-Jan-22 00:40 298 0 3.4
2020-Jan-22 00:30 237 0 3.4
2020-Jan-22 00:20 347 0 3.5
2020-Jan-22 00:10 206 0 3.5
2020-Jan-22 00:00 005 1 3.6
2020-Jan-21 23:50 303 2 3.5
2020-Jan-21 23:40 199 0 3.4
2020-Jan-21 23:30 346 2 3.4
2020-Jan-21 23:20 002 1 3.7
2020-Jan-21 23:10 153 2 3.7
2020-Jan-21 23:00 265 2 3.7
2020-Jan-21 22:50 197 1 3.7
2020-Jan-21 22:40 301 1 3.6
2020-Jan-21 22:30 004 2 3.4
2020-Jan-21 22:20 218 0 3.1
2020-Jan-21 22:10 139 0 2.9
2020-Jan-21 22:00 072 1 2.5
2020-Jan-21 21:50 115 1 2.2
2020-Jan-21 21:40 104 0 2.2
2020-Jan-21 21:30 064 0 2.0
2020-Jan-21 21:20 201 0 1.8
2020-Jan-21 21:10 180 0 2.1
2020-Jan-21 21:00 338 0 2.1
2020-Jan-21 20:50 301 1 1.9
2020-Jan-21 20:40 119 0 1.7
2020-Jan-21 20:30 293 0 1.8
2020-Jan-21 20:20 294 0 1.8
2020-Jan-21 20:10 290 0 1.7
2020-Jan-21 20:00 268 0 1.9
2020-Jan-21 19:50 320 0 1.7
2020-Jan-21 19:40 093 1 1.7
2020-Jan-21 19:30 287 0 1.5
2020-Jan-21 19:20 299 1 1.5
2020-Jan-21 19:10 295 0 1.6
2020-Jan-21 19:00 034 0 1.4
2020-Jan-21 18:50 290 1 1.3
2020-Jan-21 18:40 290 0 1.3
2020-Jan-21 18:30 314 0 1.2
2020-Jan-21 18:20 212 3 1.3
2020-Jan-21 18:10 024 1 1.2
2020-Jan-21 18:00 318 0 1.3
2020-Jan-21 17:50 078 1 1.2
2020-Jan-21 17:40 096 1 1.2
2020-Jan-21 17:30 077 1 1.2
2020-Jan-21 17:20 008 0 1.3
2020-Jan-21 17:10 037 0 1.3
2020-Jan-21 17:00 068 1 1.3
2020-Jan-21 16:50 032 1 1.3
2020-Jan-21 16:40 014 1 1.3
2020-Jan-21 16:30 095 1 1.4
2020-Jan-21 16:20 080 1 1.5
2020-Jan-21 16:10 107 0 1.7
2020-Jan-21 16:00 089 0 1.6
2020-Jan-21 15:50 077 0 1.5
2020-Jan-21 15:40 121 0 1.7
2020-Jan-21 15:30 080 0 1.9
2020-Jan-21 15:20 110 0 1.9
2020-Jan-21 15:10 222 0 2.0
2020-Jan-21 15:00 109 0 2.3
2020-Jan-21 14:50 2.4
2020-Jan-21 14:40 177 1 2.4
2020-Jan-21 14:30 247 0 2.8
2020-Jan-21 14:20 299 2 3.1
2020-Jan-21 14:10 048 0 3.1
2020-Jan-21 14:00 323 0 3.4
2020-Jan-21 13:50 218 2 3.3
2020-Jan-21 13:40 297 1 3.4
2020-Jan-21 13:30 190 1 3.2
2020-Jan-21 13:20 006 3 3.2
2020-Jan-21 13:10 341 7 3.3
2020-Jan-21 13:00 318 1 3.2
2020-Jan-21 12:50 032 1 3.4
2020-Jan-21 12:40 194 1 3.3
2020-Jan-21 12:30 201 0 3.3
2020-Jan-21 12:20 342 1 3.3
2020-Jan-21 12:10 299 3 3.4
2020-Jan-21 12:00 343 1 3.3
2020-Jan-21 11:50 305 1 3.3
2020-Jan-21 11:40 328 2 3.3
2020-Jan-21 11:30 336 0 3.3
2020-Jan-21 11:20 319 0 3.3
2020-Jan-21 11:10 178 0 3.2
2020-Jan-21 11:00 355 0 3.1
2020-Jan-21 10:50 005 3 3.2
2020-Jan-21 10:40 161 1 3.1
2020-Jan-21 10:30 166 4 3.2
2020-Jan-21 10:20 088 0 3.1
2020-Jan-21 10:10 104 1 3.1
2020-Jan-21 10:00 028 8 3.0
2020-Jan-21 09:50 344 0 3.1
2020-Jan-21 09:40 113 1 3.2
2020-Jan-21 09:30 023 0 3.3
2020-Jan-21 09:20 123 1 3.1
2020-Jan-21 09:10 294 1 3.1
2020-Jan-21 09:00 329 1 2.9
2020-Jan-21 08:50 008 0 2.9
2020-Jan-21 08:40 098 3 2.9
2020-Jan-21 08:30 223 1 2.9
2020-Jan-21 08:20 329 1 2.9
2020-Jan-21 08:10 305 0 2.9
2020-Jan-21 08:00 233 1 3.0
2020-Jan-21 07:50 345 1 3.0
2020-Jan-21 07:40 334 0 3.1
2020-Jan-21 07:30 194 0 3.0
2020-Jan-21 07:20 181 1 2.9
2020-Jan-21 07:10 355 1 2.8
2020-Jan-21 07:00 150 2 2.8
2020-Jan-21 06:50 014 2 2.8
2020-Jan-21 06:40 182 1 2.8
2020-Jan-21 06:30 182 0 2.9
2020-Jan-21 06:20 298 0 2.9
2020-Jan-21 06:10 327 0 2.9
2020-Jan-21 06:00 149 0 2.7
2020-Jan-21 05:50 121 1 2.6
2020-Jan-21 05:40 108 1 2.8
2020-Jan-21 05:30 222 1 3.0
2020-Jan-21 05:20 188 0 2.9
2020-Jan-21 05:10 103 2 2.8
2020-Jan-21 05:00 069 0 2.7
2020-Jan-21 04:50 125 2 2.2
2020-Jan-21 04:40 182 0 3.1
2020-Jan-21 04:30 128 1 3.0
2020-Jan-21 04:20 196 0 2.3
2020-Jan-21 04:10 116 0 2.0
2020-Jan-21 04:00 131 0 2.7
2020-Jan-21 03:50 230 0 2.2
2020-Jan-21 03:40 165 1 1.2
2020-Jan-21 03:30 155 1 1.1
2020-Jan-21 03:20 109 1 1.1
2020-Jan-21 03:10 094 0 1.2
2020-Jan-21 03:00 338 0 1.2
2020-Jan-21 02:50 153 0 1.1
2020-Jan-21 02:40 218 0 1.5
2020-Jan-21 02:30 284 0 1.3
2020-Jan-21 02:20 329 0 1.9
2020-Jan-21 02:10 065 0 1.7
2020-Jan-21 02:00 162 1 1.6
2020-Jan-21 01:50 131 2 1.5
2020-Jan-21 01:40 181 0 2.0
2020-Jan-21 01:30 041 1 2.0
2020-Jan-21 01:20 015 0 2.8
2020-Jan-21 01:10 025 1 2.3
2020-Jan-21 01:00 278 0 2.2
2020-Jan-21 00:50 214 0 2.5
2020-Jan-21 00:40 123 1 2.2
2020-Jan-21 00:30 155 1 2.4
2020-Jan-21 00:20 125 0 2.9
2020-Jan-21 00:10 088 0 3.1
2020-Jan-21 00:00 290 0 3.0
2020-Jan-20 23:50 109 0 3.1
2020-Jan-20 23:40 163 1 3.3
2020-Jan-20 23:30 163 0 3.3
2020-Jan-20 23:20 166 2 3.3
2020-Jan-20 23:10 008 0 3.1
2020-Jan-20 23:00 297 1 3.4
2020-Jan-20 22:50 357 0 3.5
2020-Jan-20 22:40 295 2 3.1
2020-Jan-20 22:30 043 1 3.1
2020-Jan-20 22:20 008 0 3.4
2020-Jan-20 22:10 102 0 3.6
2020-Jan-20 22:00 035 1 3.5
2020-Jan-20 21:50 104 0 3.3
2020-Jan-20 21:40 309 0 3.1
2020-Jan-20 21:30 341 0 3.1
2020-Jan-20 21:20 299 0 3.2
2020-Jan-20 21:10 021 0 3.0
2020-Jan-20 21:00 208 0 2.9
2020-Jan-20 20:50 178 1 3.5
2020-Jan-20 20:40 098 1 3.2
2020-Jan-20 20:30 089 0 3.8
2020-Jan-20 20:20 095 2 3.5
2020-Jan-20 20:10 287 0 3.3
2020-Jan-20 20:00 291 0 3.5
2020-Jan-20 19:50 224 2 3.5
2020-Jan-20 19:40 038 3 3.4
2020-Jan-20 19:30 013 1 3.3
2020-Jan-20 19:20 099 2 3.1
2020-Jan-20 19:10 178 0 3.0
2020-Jan-20 19:00 034 1 2.7
2020-Jan-20 18:50 112 0 2.9
2020-Jan-20 18:40 054 2 2.8
2020-Jan-20 18:30 115 2 2.8
2020-Jan-20 18:20 075 2 2.8
2020-Jan-20 18:10 062 2 2.8
2020-Jan-20 18:00 104 3 2.6
2020-Jan-20 17:50 086 2 2.5
2020-Jan-20 17:40 073 2 2.2
2020-Jan-20 17:30 260 0 1.4
2020-Jan-20 17:20 144 0 1.5
2020-Jan-20 17:10 017 0 1.4
2020-Jan-20 17:00 031 0 1.2
2020-Jan-20 16:50 043 0 2.0
2020-Jan-20 16:40 013 1 1.3
2020-Jan-20 16:30 135 1 1.2
2020-Jan-20 16:20 188 0 1.6
2020-Jan-20 16:10 090 0 1.3
2020-Jan-20 16:00 352 0 1.3
2020-Jan-20 15:50 310 1 1.3
2020-Jan-20 15:40 203 1 1.2
2020-Jan-20 15:30 011 0 1.4
2020-Jan-20 15:20 357 0 1.3
2020-Jan-20 15:10 189 0 1.5
2020-Jan-20 15:00 016 1 1.6
2020-Jan-20 14:50 295 0 1.4
2020-Jan-20 14:40 064 0 1.7
2020-Jan-20 14:30 060 0 1.4
2020-Jan-20 14:20 030 0 1.5
2020-Jan-20 14:10 048 1 1.7
2020-Jan-20 14:00 295 0 1.2